Regional Weather Roundup
Issued by NWS Cleveland, OH

Home | Current Version | Previous Version | Text Only | Print | Product List | Glossary On
Versions: 1 2 3 4 5 6 7 8 9 10 11 12 13 14 15 16 17 18 19 20 21 22 23 24 25 26 27 28 29 30 31 32 33 34 35 36 37 38 39 40 41 42 43 44 45 46 47 48 49 50
000
ASUS41 KCLE 210810
RWRCLE
OHIO REGIONAL WEATHER ROUNDUP
NATIONAL WEATHER SERVICE CLEVELAND, OH
300 AM EST SUN DEC 21 2014

NOTE: "FAIR" INDICATES FEW OR NO CLOUDS BELOW 12,000 FEET WITH NO
SIGNIFICANT WEATHER AND/OR OBSTRUCTIONS TO VISIBILITY.

OHZ001>008-015>018-024>027-034-035-043-044-210900-
   NORTHWEST OHIO

CITY           SKY/WX    TMP DP  RH WIND       PRES   REMARKS
DEFIANCE       CLOUDY    25  22  88 CALM      30.30R FOG
FINDLAY        FAIR      25  20  81 CALM      30.28R HAZE
TOLEDO EXPRESS CLEAR     22  18  85 CALM      30.29R
TOLEDO EXEC    CLEAR     25  22  88 CALM      30.31R FOG
LIMA           CLOUDY    29  24  82 CALM      30.28R HAZE
$$

OHZ009>014-019>023-028>033-038-089-210900-
   NORTHEAST OHIO

CITY           SKY/WX    TMP DP  RH WIND       PRES   REMARKS
CLE-HOPKINS    CLOUDY    29  23  78 SW3       30.32R
CLE-LAKEFRONT  CLOUDY    31  22  69 SW8       30.30R WCI  23
CUY CO. ARPT   NOT AVBL
LORAIN-ELYRIA  CLOUDY    28  25  88 CALM      30.30R
ASHTABULA      CLOUDY    29  24  82 CALM      30.29R
AKRON-CANTON   CLOUDY    27  21  78 CALM      30.27R
WOOSTER        CLOUDY    28  23  81 W3        30.28R
MANSFIELD      CLOUDY    28  23  81 SW3       30.27R
YOUNGSTOWN     CLOUDY    28  23  81 CALM      30.27R
$$

OHZ042-051>053-060>062-070>072-077>081-210900-
  SOUTHWEST OHIO

CITY           SKY/WX    TMP DP  RH WIND       PRES   REMARKS
CINC-COVINGTON CLOUDY    31  21  66 CALM      30.29R
CINC-LUNKEN    PTCLDY    28  25  88 CALM      30.32S
HAMILTON       CLEAR     18  15  88 CALM      30.32R FOG
DAYTON         MOCLDY    26  21  81 CALM      30.30R HAZE
WRIGHT-PAT AFB CLOUDY    29  25  85 CALM      30.30R
DAYTON GENERAL MOCLDY    25  23  92 CALM      30.29R FOG
WILMINGTON     CLOUDY    23  20  88 CALM      30.29S FOG
$$

OHZ036-037-039>041-045>050-054>059-063>069-073>076-082>088-210900-
  CENTRAL AND SOUTHEAST OHIO

CITY           SKY/WX    TMP DP  RH WIND       PRES   REMARKS
COLUMBUS       CLOUDY    30  24  78 CALM      30.30R
OSU AIRPORT    CLOUDY    29  24  82 CALM      30.29R
BOLTON FIELD   CLOUDY    28  26  93 MISG      30.30S FOG
RICKENBACK AFB CLOUDY    29  26  89 CALM      30.30S FOG
NEWARK         CLOUDY    31  26  82 CALM      30.29R
MARION         CLOUDY    29  24  82 CALM      30.28S HAZE
LANCASTER      CLOUDY    35  26  69 CALM      30.30R
ZANESVILLE     CLOUDY    29  24  82 CALM      30.30R
NEW PHILLY     CLOUDY    30  23  75 CALM      30.30R
$$



USA.gov is the U.S. government's official web portal to all federal, state and local government web resources and services.